Date String (YYYY-MM-DD hh:mm:ss) UTC,Instrument flags,Ambient pressure (hPa),Sample flow (lpm),Bypass flow (lpm),Sample temperature (°C),Ambient temperature (°C),ASC tube jacket temperature (°C),LED temperature (°C),Box temperature (°C),Sample RH (%),Span deviation,Mass concentration (μg/m³),Mass concentration (μg/m³),Mass concentration (μg/m³)
DateTimeUTC,F1_M11,P_M11,Q1_M11,Q2_M11,T1_M11,T2_M11,T3_M11,T4_M11,T5_M11,U1_M11,ZSPAN_M11,X0_M11,X2_M11,X1_M11
2022-03-12 23:00:00,,0824.1,4.99,0.00,23.9,23.1,00.0,33.0,25.6,10.7,0000.0,0001.77,0000.99,0000.63
2022-03-12 23:01:00,,0824.0,5.00,0.00,23.9,23.1,00.0,33.0,25.5,10.9,0000.0,0001.78,0000.99,0000.63
2022-03-12 23:02:00,,0824.1,5.02,0.00,23.9,23.1,00.0,33.0,25.6,10.9,0000.0,0001.75,0000.98,0000.63
2022-03-12 23:03:00,,0824.1,4.98,0.00,23.9,23.1,00.0,33.0,25.6,10.9,0000.0,0001.70,0000.95,0000.62
2022-03-12 23:04:00,,0824.0,5.01,0.00,23.9,23.1,00.0,33.0,25.6,10.8,0000.0,0001.82,0000.96,0000.61
2022-03-12 23:05:00,,0824.0,4.98,0.00,23.9,23.1,00.0,33.0,25.6,10.7,0000.0,0001.90,0000.94,0000.61
2022-03-12 23:06:00,,0824.0,4.99,0.00,23.9,23.0,00.0,32.9,25.6,10.9,0000.0,0001.84,0000.92,0000.61
2022-03-12 23:07:00,,0824.0,5.01,0.00,23.9,23.0,00.0,32.9,25.6,10.8,0000.0,0001.80,0000.91,0000.61
2022-03-12 23:08:00,,0824.0,5.00,0.00,23.9,23.0,00.0,32.9,25.6,10.5,0000.0,0001.70,0000.87,0000.61
2022-03-12 23:09:00,,0824.0,4.99,0.00,23.9,23.0,00.0,32.9,25.6,10.6,0000.0,0001.63,0000.85,0000.60
2022-03-12 23:10:00,,0824.0,5.01,0.00,23.9,23.0,00.0,32.9,25.6,10.7,0000.0,0001.61,0000.80,0000.61
2022-03-12 23:11:00,,0824.0,4.98,0.00,23.9,23.0,00.0,32.9,25.6,10.6,0000.0,0001.60,0000.81,0000.61
2022-03-12 23:12:00,,0824.1,5.01,0.00,23.9,23.0,00.0,32.9,25.6,10.6,0000.0,0001.58,0000.80,0000.61
2022-03-12 23:13:00,,0824.1,4.98,0.00,23.9,22.9,00.0,32.9,25.6,10.8,0000.0,0001.58,0000.81,0000.61
2022-03-12 23:14:00,,0824.1,5.00,0.00,23.9,23.0,00.0,32.9,25.6,10.5,0000.0,0001.59,0000.82,0000.63
2022-03-12 23:15:00,,0824.1,5.01,0.00,23.9,23.0,00.0,32.9,25.6,10.6,0000.0,0001.47,0000.81,0000.63
2022-03-12 23:16:00,,0824.1,4.99,0.00,23.8,22.9,00.0,32.9,25.6,10.5,0000.0,0001.42,0000.82,0000.64
2022-03-12 23:17:00,,0824.2,4.99,0.00,23.9,22.9,00.0,32.9,25.6,10.6,0000.0,0001.36,0000.86,0000.65
2022-03-12 23:18:00,,0824.1,5.00,0.00,23.8,23.0,00.0,32.9,25.5,10.7,0000.0,0001.53,0000.92,0000.66
2022-03-12 23:19:00,,0824.2,5.00,0.00,23.8,22.9,00.0,32.8,25.5,10.7,0000.0,0001.64,0000.94,0000.66
2022-03-12 23:20:00,,0824.2,5.01,0.00,23.8,22.9,00.0,32.8,25.4,10.7,0000.0,0001.72,0000.94,0000.66
2022-03-12 23:21:00,,0824.2,5.00,0.00,23.8,22.9,00.0,32.8,25.5,10.5,0000.0,0001.74,0000.96,0000.65
2022-03-12 23:22:00,,0824.2,4.99,0.00,23.8,22.9,00.0,32.8,25.4,10.3,0000.0,0001.75,0000.97,0000.64
2022-03-12 23:23:00,,0824.2,4.99,0.00,23.8,22.9,00.0,32.8,25.4,10.5,0000.0,0001.79,0000.98,0000.64
2022-03-12 23:24:00,,0824.2,5.01,0.00,23.8,22.9,00.0,32.8,25.4,10.6,0000.0,0001.89,0001.01,0000.64
2022-03-12 23:25:00,,0824.2,5.00,0.00,23.8,22.9,00.0,32.8,25.5,10.5,0000.0,0001.94,0001.01,0000.63
2022-03-12 23:26:00,,0824.3,4.99,0.00,23.7,22.9,00.0,32.8,25.5,10.6,0000.0,0002.01,0001.06,0000.63
2022-03-12 23:27:00,,0824.3,5.01,0.00,23.7,22.9,00.0,32.8,25.5,10.5,0000.0,0002.02,0001.06,0000.64
2022-03-12 23:28:00,,0824.3,5.00,0.00,23.7,22.9,00.0,32.8,25.4,10.7,0000.0,0002.02,0001.06,0000.64
2022-03-12 23:29:00,,0824.3,5.00,0.00,23.7,22.9,00.0,32.8,25.4,10.8,0000.0,0001.92,0001.02,0000.63
2022-03-12 23:30:00,,0824.3,4.99,0.00,23.7,22.9,00.0,32.8,25.4,10.6,0000.0,0001.89,0001.00,0000.64
2022-03-12 23:31:00,,0824.3,5.01,0.00,23.7,22.9,00.0,32.8,25.4,10.6,0000.0,0001.81,0000.99,0000.64
2022-03-12 23:32:00,,0824.3,5.00,0.00,23.7,22.9,00.0,32.8,25.4,10.7,0000.0,0001.73,0000.98,0000.64
2022-03-12 23:33:00,,0824.3,5.00,0.00,23.7,22.9,00.0,32.7,25.3,10.7,0000.0,0001.70,0000.97,0000.65
2022-03-12 23:34:00,,0824.4,5.01,0.00,23.7,22.9,00.0,32.7,25.3,10.5,0000.0,0001.69,0000.97,0000.65
2022-03-12 23:35:00,,0824.4,5.01,0.00,23.7,22.8,00.0,32.7,25.3,10.6,0000.0,0001.68,0000.97,0000.66
2022-03-12 23:36:00,,0824.3,5.00,0.00,23.7,22.8,00.0,32.7,25.3,10.8,0000.0,0001.63,0000.97,0000.66
2022-03-12 23:37:00,,0824.3,4.99,0.00,23.7,22.9,00.0,32.7,25.3,10.8,0000.0,0001.58,0000.95,0000.65
2022-03-12 23:38:00,,0824.3,5.01,0.00,23.7,22.9,00.0,32.7,25.4,10.7,0000.0,0001.51,0000.91,0000.64
2022-03-12 23:39:00,,0824.1,4.99,0.00,23.7,22.9,00.0,32.7,25.4,10.8,0000.0,0001.42,0000.88,0000.63
2022-03-12 23:40:00,,0824.1,4.99,0.00,23.7,22.9,00.0,32.7,25.5,10.6,0000.0,0001.42,0000.87,0000.63
2022-03-12 23:41:00,,0824.1,5.01,0.00,23.7,22.9,00.0,32.7,25.5,10.4,0000.0,0001.34,0000.86,0000.62
2022-03-12 23:42:00,,0824.1,5.00,0.00,23.7,22.9,00.0,32.7,25.5,10.6,0000.0,0001.34,0000.86,0000.62
2022-03-12 23:43:00,,0824.1,5.00,0.00,23.7,22.9,00.0,32.7,25.5,10.7,0000.0,0001.63,0000.89,0000.61
2022-03-12 23:44:00,,0824.0,5.01,0.00,23.7,22.9,00.0,32.7,25.5,10.8,0000.0,0001.79,0000.87,0000.62
2022-03-12 23:45:00,,0824.0,5.00,0.00,23.7,23.0,00.0,32.7,25.5,10.7,0000.0,0001.74,0000.85,0000.61
2022-03-12 23:46:00,,0824.1,5.00,0.00,23.7,23.0,00.0,32.7,25.5,10.5,0000.0,0001.75,0000.87,0000.61
2022-03-12 23:47:00,,0824.1,4.99,0.00,23.7,23.0,00.0,32.7,25.5,10.8,0000.0,0001.75,0000.86,0000.61
2022-03-12 23:48:00,,0824.2,5.00,0.00,23.7,23.0,00.0,32.7,25.5,10.7,0000.0,0001.77,0000.85,0000.61
2022-03-12 23:49:00,,0824.1,5.01,0.00,23.7,23.0,00.0,32.7,25.5,11.0,0000.0,0001.83,0000.87,0000.61
2022-03-12 23:50:00,,0824.2,5.02,0.00,23.7,23.0,00.0,32.7,25.5,10.7,0000.0,0001.95,0000.91,0000.62
2022-03-12 23:51:00,,0824.2,4.99,0.00,23.8,23.0,00.0,32.7,25.5,10.5,0000.0,0001.97,0000.92,0000.62
2022-03-12 23:52:00,,0824.2,4.99,0.00,23.8,23.0,00.0,32.7,25.5,10.3,0000.0,0001.98,0000.92,0000.62
2022-03-12 23:53:00,,0824.2,5.00,0.00,23.7,23.0,00.0,32.7,25.5,10.4,0000.0,0002.05,0000.96,0000.62
2022-03-12 23:54:00,,0824.3,5.01,0.00,23.7,23.0,00.0,32.7,25.4,10.5,0000.0,0002.01,0000.92,0000.62
2022-03-12 23:55:00,,0824.2,5.01,0.00,23.7,23.0,00.0,32.7,25.5,10.5,0000.0,0002.42,0000.95,0000.63
2022-03-12 23:56:00,,0824.3,4.99,0.00,23.7,23.0,00.0,32.7,25.5,10.4,0000.0,0002.51,0000.99,0000.63
2022-03-12 23:57:00,,0824.3,4.99,0.00,23.7,23.0,00.0,32.7,25.4,10.5,0000.0,0002.45,0000.96,0000.63
2022-03-12 23:58:00,,0824.3,5.01,0.00,23.7,23.0,00.0,32.7,25.5,10.5,0000.0,0002.45,0000.96,0000.63
2022-03-12 23:59:00,,0824.3,5.00,0.00,23.7,23.0,00.0,32.7,25.5,10.5,0000.0,0002.56,0001.00,0000.64
